CAPE
1466 1490 1514 1551 1486 1313 1337 1716 1822 1893 1847 1932 1949 1848 1958 1982 1898 1706 1567 1656 1667 1601 1549 1525 1603 1611 1664 1473 1568 1697 1558 1521 1421 1357 1315 1244 1216 1191 1129 1160 1040 1022 960 896 946 985 1072 1120 1240 1663 1892 1808 1083 710 769 605 501 370 446 567 578 640
1407 1432 1459 1446 1362 1306 1402 1590 1627 1646 1805 1916 1697 1564 1583 1670 1633 1550 1621 1575 1572 1643 1478 1453 1571 1730 1470 1628 1505 1614 1552 1463 1378 1329 1281 1179 1128 1061 1076 1038 1053 887 1021 912 1063 931 643 626 857 1254 1913 1241 648 702 667 524 392 465 494 458 613 1028
1378 1355 1342 1320 1237 1298 1474 1534 1521 1500 1534 1602 1754 1671 1577 1416 1409 1419 1452 1528 1519 1505 1492 1559 1526 1521 1548 1475 1656 1617 1492 1382 1289 1216 1165 1108 1058 1026 954 991 1044 997 1049 961 1022 815 710 509 454 905 1048 583 542 549 490 421 433 485 478 576 677 1021
1331 1275 1228 1141 1138 1270 1386 1366 1409 1323 1387 1500 1512 1496 1354 1336 1370 1334 1327 1402 1477 1423 1502 1534 1757 1746 1617 1624 1513 1632 1468 1386 1278 1085 1071 1028 946 809 991 883 792 949 780 660 504 373 344 449 393 381 546 511 472 462 435 482 500 523 639 1001 791 1284
1274 1199 939 894 928 896 949 1175 1228 1272 1275 1351 1414 1348 1254 1240 1260 1226 1233 1278 1312 1294 1320 1287 1395 1408 1364 1434 1444 1340 1238 1161 1121 1078 917 598 484 463 392 55 5 426 83 155 126 24 79 398 289 279 476 646 614 480 436 512 570 635 630 620 854 983
1220 1044 628 823 774 780 783 770 848 843 875 1121 1207 1175 1155 1109 1098 1105 1098 1048 973 1147 1348 1328 1294 1176 1228 1281 1225 1189 1150 1046 1077 1058 772 604 425 376 473 68 11 4 24 21 4 0 1 257 58 341 479 566 612 502 509 590 630 619 585 643 928 971
1003 807 570 616 612 326 315 399 433 806 856 987 1026 1012 948 957 939 1043 1078 1034 1010 1089 1167 1182 1086 1092 1120 1006 1003 1022 1006 992 906 870 891 762 662 524 543 480 460 479 454 222 12 379 344 311 340 399 432 494 677 503 532 634 668 638 672 784 1128 1014
812 708 605 350 222 180 354 248 379 750 822 933 1015 872 719 775 818 910 1005 1024 978 1012 957 919 951 1000 963 868 860 925 851 794 748 657 836 546 518 532 621 500 486 519 0 369 0 0 316 329 389 448 320 448 605 505 565 615 639 648 690 827 1029 1412
727 553 402 312 209 300 314 269 580 704 804 1117 933 734 657 726 821 812 813 879 977 809 717 819 891 888 884 867 899 860 801 740 885 829 705 734 784 650 488 419 400 446 440 121 105 0 138 358 506 461 374 461 509 451 429 547 594 620 648 724 856 1201
616 343 387 341 371 482 493 535 631 706 847 931 780 618 602 638 692 620 660 744 820 767 773 755 715 685 685 724 804 940 901 774 681 835 748 729 668 586 421 335 7 0 2 0 0 50 91 327 416 458 434 483 469 454 429 508 554 601 672 754 923 1111
516 417 403 371 338 451 622 504 518 561 653 736 615 452 502 559 611 564 649 705 874 817 783 775 732 624 469 503 606 606 786 767 764 591 650 587 449 67 22 19 51 10 1 0 0 2 31 283 301 335 389 348 355 421 377 436 538 623 751 873 922 982
566 498 412 360 138 621 626 484 386 364 494 623 299 252 461 623 652 665 593 850 1136 1001 859 807 691 633 504 387 391 552 707 713 613 429 426 265 38 50 111 169 209 100 12 0 0 0 16 234 212 296 315 334 359 300 428 410 526 692 847 928 907 887
715 517 453 509 417 451 440 363 306 304 453 558 310 427 586 597 670 700 695 1031 1387 1267 900 879 838 703 630 474 381 592 723 852 765 654 499 483 399 258 300 158 164 100 20 0 0 9 118 184 26 256 282 296 289 314 390 368 558 684 839 817 791 734
683 569 205 428 425 572 423 324 360 266 298 511 419 536 646 670 672 698 850 1050 1423 1444 1172 1006 742 584 324 101 56 121 596 987 871 867 735 612 451 200 93 88 84 83 216 3 0 1 10 21 173 218 220 219 410 418 422 358 374 506 621 610 660 673
679 666 558 488 547 491 270 351 378 274 253 314 356 526 718 713 806 946 1062 1258 1296 1348 1132 1042 831 570 411 76 475 651 884 1260 1199 1047 574 450 430 299 75 76 32 23 8 23 35 72 44 85 98 181 82 145 326 421 385 320 340 335 350 374 506 562
821 690 660 611 392 310 274 392 388 403 465 435 374 746 846 769 825 1020 1176 1306 1166 1104 1114 996 848 791 603 421 574 952 966 958 744 477 343 358 417 369 304 63 84 14 26 54 117 109 111 239 150 169 103 284 491 612 407 419 373 377 284 303 264 250
657 392 396 433 459 314 396 450 505 574 621 587 641 766 804 719 798 990 1224 1191 883 807 1030 944 894 854 616 541 918 1069 926 614 544 492 371 356 398 374 346 132 82 60 17 76 237 460 528 391 256 282 412 660 854 768 300 263 270 397 409 213 222 187
603 446 495 586 590 476 583 634 670 720 671 663 713 754 707 792 1058 1233 1254 966 976 875 770 910 1145 1102 1113 1040 1026 932 787 675 594 531 430 432 465 404 360 41 53 26 38 378 591 643 525 315 162 125 536 591 614 522 435 559 443 362 280 346 438 435
518 567 555 630 650 562 585 755 794 849 869 879 970 822 791 943 1338 1336 1039 864 947 916 803 847 1263 1248 1228 1169 1045 900 791 802 664 614 499 505 516 410 396 339 18 32 237 576 644 518 285 461 529 357 353 497 543 576 207 220 290 276 307 435 458 486
480 562 565 560 631 693 839 925 958 1022 1091 1208 1193 1161 1143 1073 1284 1242 1215 1205 1159 1019 1035 1108 1200 1097 1015 1022 973 896 749 705 718 678 639 512 542 447 496 349 17 72 189 500 547 511 581 607 491 430 386 446 352 262 114 209 194 210 213 63 208 240
579 571 518 600 817 884 932 1001 1118 1312 1327 1375 1424 1490 1396 1369 1460 1443 1192 1321 1308 1299 1253 1159 1228 1037 912 936 922 885 758 615 656 680 670 528 597 534 478 365 90 40 42 205 381 446 587 444 364 315 358 400 320 322 753 61 180 337 303 276 16 1
666 606 722 881 1039 1153 1255 1227 1303 1495 1321 1199 958 1189 1035 816 876 946 1211 1482 1424 1392 1212 1099 1064 964 988 1083 985 788 490 597 772 835 737 664 727 650 582 509 368 117 401 407 341 400 513 458 309 293 327 326 286 197 4 60 145 232 392 178 52 52
736 709 852 1040 1160 1261 1300 1180 1078 1110 916 683 813 1008 785 797 1025 1182 1354 1370 1227 1239 1116 1059 1006 991 1094 1180 956 634 505 710 866 1092 1062 884 835 781 728 647 582 392 409 585 704 669 455 832 316 282 286 278 278 217 134 0 60 89 247 212 0 0
843 779 799 927 984 1074 1150 1017 736 695 621 587 736 733 861 968 1117 1250 1331 1302 1242 1158 1083 1128 1173 1004 974 976 946 736 928 1109 1213 1248 1206 964 831 816 828 761 702 569 515 659 722 697 575 698 100 0 202 286 224 211 147 109 67 3 7 0 0 0
901 924 947 1032 1237 1084 697 470 353 328 454 633 762 894 926 914 1007 1181 1248 1245 1254 1185 1143 1109 1072 1003 856 793 592 661 765 988 1152 1268 1187 1027 783 764 946 884 808 622 533 620 693 684 592 594 278 605 238 159 38 147 154 0 0 0 0 0 0 0
975 1156 1285 1139 610 310 225 244 203 333 548 635 712 770 819 888 902 848 780 721 828 862 809 751 771 740 643 594 604 548 530 654 835 992 1147 1109 868 958 859 876 832 687 594 609 649 654 580 517 515 540 747 400 32 146 66 0 0 0 0 0 0 0
1032 1197 1054 354 45 252 282 295 360 437 515 574 577 568 669 787 783 724 650 544 495 518 534 558 558 543 594 551 521 501 515 646 756 1041 1141 992 1002 1101 972 942 850 776 597 571 647 650 611 496 552 518 645 711 698 416 0 0 0 0 0 0 0 0
705 675 315 9 287 335 370 383 383 426 473 486 333 312 455 508 523 590 550 490 432 389 421 473 457 446 514 548 584 626 581 654 680 876 1244 1083 1029 1126 1092 1138 1158 906 701 519 512 607 639 484 507 438 510 390 110 0 0 0 0 0 0 0 0 0
418 399 260 35 241 277 252 268 274 215 110 38 190 377 384 398 498 523 464 418 410 404 427 437 394 364 440 552 717 778 664 607 475 589 810 1247 1081 1051 957 832 745 661 634 588 490 502 454 442 389 437 416 326 198 80 3 1 0 0 0 0 0 0
412 362 82 53 143 169 115 201 95 68 86 145 236 209 130 29 98 242 266 182 0 0 0 98 334 383 354 334 213 248 375 456 431 560 652 798 1245 1138 958 737 604 630 536 377 145 478 394 303 277 423 431 414 252 148 11 7 2 0 0 0 1 0
550 560 404 392 561 380 342 266 112 52 0 15 0 68 17 0 0 0 27 0 0 0 0 0 0 0 0 0 0 0 0 0 50 472 466 440 668 951 995 754 572 572 588 447 435 301 363 390 488 499 425 430 282 179 99 12 2 0 0 0 0 0
913 859 768 794 846 510 411 407 329 262 188 64 0 0 0 0 0 0 0 0 0 0 0 0 0 0 0 0 0 0 0 0 304 390 426 640 744 752 769 638 555 540 511 531 519 404 336 298 582 562 519 464 304 219 144 8 28 6 0 0 0 0
1088 997 976 956 820 450 500 449 402 371 337 241 12 0 0 0 0 0 0 0 0 0 0 0 0 0 0 0 0 0 0 130 398 456 460 464 531 672 698 656 678 714 788 712 567 397 321 322 457 522 573 544 393 256 193 0 0 10 6 0 0 0
1136 1114 988 857 642 216 436 427 385 332 239 0 0 0 0 0 0 0 0 0 0 0 0 0 0 0 0 0 0 0 0 0 0 374 529 558 588 582 656 721 801 764 745 685 575 440 365 341 379 457 553 571 602 370 145 79 0 0 0 0 0 0
1168 1061 852 696 525 159 0 0 188 0 0 0 0 0 0 0 0 0 0 0 0 0 0 0 0 0 0 0 0 0 0 0 0 397 552 616 623 587 608 741 831 783 684 506 442 389 393 340 314 431 512 501 573 510 417 265 0 0 0 0 0 0
1126 1083 925 610 505 378 39 0 0 0 0 0 0 0 0 0 0 0 0 0 0 0 0 0 0 0 0 0 0 0 0 0 0 386 612 657 677 689 674 670 704 720 564 141 0 0 0 0 51 98 82 0 0 0 0 0 0 0 0 0 0 0
1215 1217 932 690 500 419 352 0 0 0 0 0 0 0 0 0 0 0 0 0 0 0 0 0 0 0 0 0 0 0 0 0 0 124 408 514 585 559 535 549 524 466 57 0 0 0 0 0 0 0 0 0 0 0 0 0 0 0 0 0 0 0
Wind_Speed
31 31 30 30 29 31 34 36 30 29 30 31 31 30 30 31 30 31 31 30 28 26 26 26 28 28 31 27 28 27 29 38 36 27 24 24 24 24 23 21 18 17 16 14 13 11 10 8 9 9 12 16 19 17 15 15 16 15 13 12 11 10
30 31 30 29 29 31 32 32 28 27 28 29 29 29 28 27 28 26 30 27 24 25 26 25 25 27 25 27 26 27 30 36 32 25 23 22 22 22 21 19 18 15 14 13 12 14 13 10 9 8 14 17 18 16 15 14 15 16 14 11 10 11
31 30 30 30 30 29 30 28 28 27 27 27 26 27 27 29 28 28 26 25 25 26 24 24 23 22 23 24 22 26 32 32 27 23 21 20 20 21 21 20 18 16 13 12 15 15 14 11 9 11 16 15 17 15 14 14 15 16 15 11 10 14
31 30 30 29 29 28 28 27 25 25 25 25 26 27 28 28 29 28 28 27 26 24 23 22 22 22 21 20 23 29 30 27 24 22 19 17 17 17 20 19 16 16 15 14 15 14 13 11 9 13 11 14 16 15 14 13 14 15 14 13 12 15
32 31 31 30 29 26 26 25 24 24 24 25 26 27 27 28 28 29 29 28 26 25 24 23 21 18 19 21 24 24 21 19 18 17 17 14 13 13 15 nan nan 14 nan 14 14 nan nan 11 9 15 10 11 14 14 13 13 14 14 14 14 15 19
33 33 32 29 28 26 24 23 23 24 24 23 25 26 26 27 27 29 28 28 27 27 26 24 22 19 19 19 20 19 18 18 17 15 15 14 12 12 12 nan nan nan nan nan nan nan nan 9 nan 12 8 10 12 11 14 13 14 15 16 16 17 21
34 33 32 29 28 24 23 23 23 22 22 22 23 24 25 25 26 27 27 27 27 27 25 22 21 19 17 16 16 17 18 17 15 14 14 16 13 11 12 13 13 16 16 15 nan 9 7 8 7 9 7 8 10 12 14 14 14 17 18 18 18 21
31 31 29 27 25 23 22 23 20 21 21 21 22 22 23 23 24 26 27 27 27 27 22 20 19 18 15 16 15 16 16 16 15 14 15 15 12 13 14 15 15 16 nan 15 nan nan 11 11 10 9 8 9 11 13 14 15 16 18 19 20 18 19
29 29 28 24 24 24 22 21 17 18 19 19 19 18 21 22 24 26 27 29 28 26 22 20 18 15 15 16 15 15 16 16 17 16 17 17 14 13 14 15 16 15 14 14 14 nan 13 10 10 9 8 9 10 12 14 15 17 18 18 18 17 18
26 27 26 24 23 25 20 17 13 15 17 18 16 17 21 22 23 25 25 26 25 23 20 17 14 13 16 16 16 16 16 16 17 16 17 16 13 13 13 15 nan nan nan nan nan nan nan 9 10 12 10 10 10 11 12 14 16 16 15 15 14 15
25 27 26 24 23 21 17 14 12 13 15 15 16 18 20 22 23 22 20 20 19 17 17 14 12 14 16 17 16 16 15 15 16 15 15 15 13 nan nan nan nan nan nan nan nan nan nan 10 9 9 10 9 9 10 11 12 14 13 12 11 10 12
25 26 27 22 19 19 16 13 13 14 13 13 16 17 19 20 19 17 16 14 13 14 16 14 13 15 17 17 16 15 14 15 14 14 14 13 nan nan 12 13 15 13 nan nan nan nan nan 10 8 8 8 7 9 9 9 10 11 11 9 7 8 11
26 27 26 18 15 17 15 13 16 15 13 15 17 16 17 15 14 13 11 10 10 13 15 14 14 16 17 17 15 14 15 15 15 15 14 13 12 12 11 12 13 nan nan nan nan nan 9 10 nan 7 5 5 8 10 9 10 10 9 6 5 9 15
26 28 25 18 11 14 12 12 12 12 12 14 14 14 11 9 9 7 8 10 10 13 15 14 14 16 17 16 nan 14 15 15 15 15 14 13 14 11 nan nan nan nan 11 nan nan nan nan nan 4 5 4 3 7 10 9 10 11 4 1 9 15 14
25 24 21 17 14 11 10 10 8 6 6 8 11 10 7 7 9 9 11 11 11 12 13 13 14 15 16 nan 15 15 14 14 15 14 15 13 13 12 nan nan nan nan nan nan nan nan nan nan nan 4 nan 3 6 8 9 13 7 2 2 11 12 8
22 22 20 16 12 11 11 9 8 7 6 5 7 8 8 11 12 11 11 11 12 15 16 16 16 16 17 16 16 15 13 13 14 14 14 12 10 10 9 nan nan nan nan nan 11 8 6 7 4 4 4 6 6 7 11 11 3 2 7 9 8 5
22 22 20 17 14 11 11 10 10 9 7 8 9 10 12 14 13 12 13 14 15 16 16 17 16 15 16 15 15 15 12 13 12 11 11 10 8 7 9 9 nan nan nan nan 10 8 6 6 6 5 6 6 7 9 12 4 2 3 6 6 5 6
21 22 21 20 17 15 11 11 10 9 10 10 11 12 13 12 11 11 12 13 13 11 11 12 14 12 13 13 14 13 12 12 12 11 11 9 8 8 8 nan nan nan nan 11 10 7 6 6 7 7 6 7 7 8 9 4 0 3 3 4 5 5
22 22 22 22 20 17 13 10 9 9 10 10 10 10 10 8 8 9 9 8 8 8 8 10 11 11 12 12 13 13 13 12 12 11 10 9 9 9 9 8 nan nan 10 11 10 10 9 8 9 8 7 7 6 7 8 5 4 5 3 2 3 4
20 20 21 21 20 18 14 11 9 8 9 9 9 9 8 8 9 10 8 6 5 6 7 9 10 11 12 12 12 12 12 12 12 11 11 10 9 9 9 9 nan nan 12 13 14 14 12 12 11 11 9 9 7 7 10 5 2 1 3 nan 3 6
18 19 19 17 15 14 12 10 8 8 8 8 8 9 10 10 9 8 7 7 6 6 7 9 10 12 13 13 12 12 12 12 12 10 10 9 8 9 10 10 nan nan nan 12 11 11 11 12 14 11 10 10 9 6 8 nan 6 2 2 4 nan nan
17 16 16 14 11 9 7 7 8 6 6 8 10 11 10 9 9 8 9 10 9 8 9 10 11 12 14 14 14 14 13 13 12 10 10 10 9 9 11 11 10 13 11 10 10 9 7 11 11 8 10 10 9 9 nan nan 6 5 6 6 nan nan
17 16 13 13 12 9 6 6 7 6 8 8 8 8 9 9 9 11 12 13 14 14 13 13 13 14 14 14 16 16 14 14 13 12 12 11 11 11 11 11 10 12 12 11 11 10 9 10 8 8 10 13 9 11 10 nan nan nan 7 8 nan nan
19 16 14 12 12 8 7 5 6 9 9 9 8 9 11 12 13 15 15 16 16 16 15 14 14 15 15 13 14 16 15 15 15 13 12 11 10 11 12 12 13 12 12 12 11 10 11 11 10 nan 11 10 9 12 12 9 nan nan nan nan nan nan
19 17 13 11 9 7 7 7 8 10 11 14 13 11 11 12 13 14 15 15 15 15 15 15 14 15 15 13 13 15 15 14 15 14 12 12 12 12 12 12 13 12 11 13 11 11 11 13 13 10 11 13 nan 12 8 nan nan nan nan nan nan nan
14 13 10 7 7 6 7 10 10 11 11 11 10 11 13 13 13 14 13 13 15 15 15 14 14 15 14 13 12 13 13 13 13 12 12 12 15 16 13 13 12 13 13 12 13 13 12 13 12 13 12 11 nan 11 nan nan nan nan nan nan nan nan
11 8 7 7 nan 7 10 11 12 10 11 13 15 13 14 15 16 14 16 16 15 14 14 14 13 13 13 12 11 11 12 12 11 11 11 13 14 14 13 13 14 14 13 14 13 12 11 11 13 13 14 14 13 13 nan nan nan nan nan nan nan nan
13 11 8 nan 9 12 13 13 14 13 15 17 18 18 17 15 15 16 17 15 15 14 12 12 12 12 12 12 11 11 11 12 12 10 9 10 12 12 13 14 14 14 14 13 13 13 11 12 13 11 14 14 16 nan nan nan nan nan nan nan nan nan
15 12 9 nan 11 12 13 14 16 16 18 nan 19 18 16 16 17 16 16 14 15 14 13 10 10 11 10 10 10 9 10 11 11 10 10 11 11 12 13 15 16 15 13 13 14 14 15 12 14 14 16 15 16 nan nan nan nan nan nan nan nan nan
12 9 nan nan 11 12 12 14 nan nan nan 18 19 18 17 nan nan 16 16 15 nan nan nan nan 10 10 12 10 10 9 8 8 9 11 12 12 13 14 15 15 14 14 15 15 14 15 14 14 14 15 15 15 15 15 nan nan nan nan nan nan nan nan
12 12 11 13 13 11 9 10 13 nan nan nan nan nan nan nan nan nan nan nan nan nan nan nan nan nan nan nan nan nan nan nan nan 10 12 13 14 15 16 17 16 17 16 15 13 14 15 14 15 15 14 15 14 15 nan nan nan nan nan nan nan nan
15 15 14 14 13 11 9 10 12 15 17 nan nan nan nan nan nan nan nan nan nan nan nan nan nan nan nan nan nan nan nan nan 10 10 10 11 13 15 15 17 18 18 17 15 14 14 14 15 14 14 13 13 13 15 15 nan nan nan nan nan nan nan
17 17 16 14 13 11 11 10 11 13 13 13 nan nan nan nan nan nan nan nan nan nan nan nan nan nan nan nan nan nan nan 14 12 11 11 12 12 12 14 15 17 18 18 18 16 16 14 14 15 14 12 13 14 15 13 nan nan nan nan nan nan nan
19 17 16 15 13 12 10 9 8 9 8 nan nan nan nan nan nan nan nan nan nan nan nan nan nan nan nan nan nan nan nan nan nan 15 15 15 15 13 14 16 16 16 16 16 17 16 15 15 14 14 14 14 12 11 11 nan nan nan nan nan nan nan
23 20 18 16 15 14 nan nan 11 nan nan nan nan nan nan nan nan nan nan nan nan nan nan nan nan nan nan nan nan nan nan nan nan 19 19 19 18 18 17 17 16 15 15 16 17 17 16 17 16 15 14 13 11 9 9 11 nan nan nan nan nan nan
23 20 17 16 16 16 nan nan nan nan nan nan nan nan nan nan nan nan nan nan nan nan nan nan nan nan nan nan nan nan nan nan nan 20 20 20 20 21 20 21 18 17 17 16 nan nan nan nan nan nan nan nan nan nan nan nan nan nan nan nan nan nan
21 20 19 18 18 17 15 nan nan nan nan nan nan nan nan nan nan nan nan nan nan nan nan nan nan nan nan nan nan nan nan nan nan 17 18 19 21 21 22 22 21 19 nan nan nan nan nan nan nan nan nan nan nan nan nan nan nan nan nan nan nan nan
Wind_Direction
270 270 269 270 269 268 275 278 272 266 265 269 270 269 272 275 274 275 274 273 267 262 263 266 267 267 273 271 274 275 280 283 276 271 275 275 278 280 280 278 273 264 269 273 270 260 246 224 215 209 224 241 257 257 258 257 265 264 251 248 249 253
272 273 272 270 268 268 271 272 264 258 259 265 266 266 266 262 265 264 275 269 262 262 265 267 270 273 271 272 275 280 281 280 274 271 272 271 274 276 275 275 274 271 268 266 265 265 254 234 215 206 230 250 258 261 262 262 265 268 263 258 254 265
273 273 271 269 268 268 268 265 260 257 258 261 261 260 258 258 258 264 265 264 259 262 267 269 268 269 266 273 274 283 284 277 271 272 273 271 272 273 272 274 274 274 268 262 261 261 256 249 237 226 241 249 264 264 262 259 259 265 271 268 260 279
274 272 269 268 269 269 266 262 258 255 254 253 254 255 256 258 260 264 265 260 260 262 264 265 274 277 273 265 276 285 280 272 270 273 273 265 266 269 271 269 272 273 265 259 262 261 260 250 244 248 242 252 267 267 267 264 263 265 270 269 266 283
272 269 268 268 268 266 263 264 259 257 256 254 255 256 259 259 262 265 263 259 259 260 258 254 245 243 253 266 272 270 259 254 260 264 266 259 256 259 262 nan nan 262 nan 264 261 nan nan 254 251 251 253 260 271 272 270 265 263 263 262 258 261 268
268 273 271 270 270 267 270 268 263 261 255 251 255 259 262 264 264 263 260 260 261 264 262 257 248 242 247 258 262 255 251 258 262 269 267 264 262 264 263 nan nan nan nan nan nan nan nan 271 nan 269 278 273 273 264 264 256 253 255 252 249 253 262
276 278 279 279 276 276 274 263 257 262 257 251 255 261 264 265 265 263 262 264 269 270 264 257 249 239 239 245 245 243 249 255 267 275 270 269 270 262 259 258 259 258 260 256 nan 241 245 249 253 263 257 263 259 253 247 247 243 245 244 242 249 260
277 279 279 279 280 276 269 260 259 260 255 262 266 261 258 261 262 263 265 267 271 269 263 256 247 238 236 237 238 242 249 255 263 269 268 264 260 249 247 250 254 253 nan 259 nan nan 234 237 236 247 248 241 244 248 246 242 237 237 238 240 241 250
276 279 274 274 272 264 262 263 261 263 264 271 269 264 261 260 264 266 265 267 268 265 259 254 245 239 241 241 243 251 258 265 269 268 267 259 259 255 247 249 250 249 255 259 248 nan 231 212 222 224 245 247 243 243 243 241 240 239 239 242 245 253
276 275 274 271 270 267 271 281 270 269 276 276 274 270 270 270 273 272 266 261 257 258 259 250 239 239 243 241 247 252 260 267 272 266 261 260 262 260 256 246 nan nan nan nan nan nan nan 221 215 207 206 242 237 242 244 246 246 245 244 245 248 253
287 286 282 285 288 292 292 285 283 284 284 278 265 267 270 271 269 263 259 251 250 252 248 237 239 245 239 244 254 260 264 268 267 263 262 265 263 nan nan nan nan nan nan nan nan nan nan 221 200 206 202 229 239 247 250 251 251 250 249 248 253 256
286 287 292 295 294 298 299 303 303 294 286 279 270 274 275 271 262 249 244 241 243 243 231 227 243 245 246 253 262 268 268 269 268 263 263 266 nan nan 260 247 242 243 nan nan nan nan nan 232 220 215 199 220 242 254 259 260 257 252 249 254 262 258
286 288 294 305 309 306 309 314 310 297 285 270 264 272 272 260 244 222 224 228 230 236 232 241 247 248 251 260 265 264 262 265 266 264 263 262 258 257 256 252 243 nan nan nan nan nan 231 209 nan 243 220 214 258 266 267 267 256 236 240 260 257 246
290 294 301 310 318 312 319 318 310 286 273 264 260 267 268 256 252 248 249 257 249 243 245 251 254 249 256 261 nan 257 258 262 263 263 261 257 257 253 nan nan nan nan 228 nan nan nan nan nan 210 252 239 237 254 268 274 262 246 235 241 249 241 245
297 298 304 312 325 310 302 314 309 285 282 263 253 248 250 265 278 286 278 277 268 257 258 260 257 262 264 nan 261 258 259 263 264 263 261 249 253 247 nan nan nan nan nan nan nan nan nan nan nan 247 nan 266 266 273 270 250 256 45 238 243 245 249
297 300 303 308 309 298 291 294 289 286 282 275 271 261 272 289 298 295 286 278 274 270 270 269 265 264 264 262 261 265 268 265 262 259 257 250 250 258 253 nan nan nan nan nan 234 233 244 252 228 236 247 253 251 260 255 259 341 49 231 243 260 268
297 294 290 290 293 289 287 288 282 285 288 285 287 284 286 289 291 290 282 278 274 273 272 267 263 258 259 260 263 269 270 269 263 260 257 253 251 256 256 249 nan nan nan nan 229 241 252 261 261 234 227 231 230 247 256 278 338 278 254 275 267 257
293 291 284 285 287 287 292 292 290 285 279 278 276 280 283 287 288 286 281 278 273 270 258 253 255 254 257 264 269 270 261 258 257 256 259 257 256 253 248 nan nan nan nan 227 225 244 266 261 252 244 228 227 228 251 284 299 302 253 307 306 305 299
294 290 284 283 285 286 289 286 280 278 277 276 279 282 290 295 302 304 305 290 277 262 245 247 258 262 263 262 260 259 258 259 261 261 257 249 252 253 250 239 nan nan 227 219 234 238 256 259 257 255 238 219 232 256 267 293 331 321 352 341 320 299
293 290 284 282 284 286 288 294 295 277 270 274 275 282 276 289 303 316 310 298 277 259 260 267 271 269 267 266 264 261 265 267 268 267 263 255 253 264 263 248 nan nan 247 235 231 244 254 258 252 254 252 238 237 258 284 305 289 324 322 nan 290 283
296 292 288 286 287 291 293 285 266 279 283 279 281 267 273 281 301 308 289 278 264 269 275 279 278 276 276 273 268 263 263 263 266 269 269 270 266 263 253 240 nan nan nan 251 236 242 246 254 261 250 245 249 246 245 256 nan 284 326 313 271 nan nan
295 295 296 295 297 303 304 302 289 294 268 271 270 277 276 281 286 277 263 255 258 269 268 268 272 272 270 274 271 268 268 268 267 269 261 257 256 253 253 250 245 238 226 251 250 256 257 247 233 264 270 248 236 227 nan nan 268 277 281 266 nan nan
297 297 294 287 286 296 281 275 277 271 271 252 250 265 268 258 253 254 255 260 262 266 271 273 271 265 262 261 266 267 267 268 270 270 264 259 257 253 251 252 240 248 243 229 243 242 241 233 251 237 238 246 233 237 221 nan nan nan 257 267 nan nan
295 287 284 280 274 272 291 291 278 278 271 259 254 245 241 242 247 254 260 264 267 272 275 277 274 272 264 261 268 269 263 265 269 265 268 265 258 254 246 240 236 238 251 249 236 230 224 230 247 nan 235 229 231 249 244 237 nan nan nan nan nan nan
285 276 269 267 272 269 262 258 264 255 243 229 221 235 254 255 263 267 267 268 275 273 277 279 276 274 272 270 260 260 261 260 262 261 258 258 258 258 251 247 251 251 254 261 242 231 221 229 234 226 252 241 nan 233 246 nan nan nan nan nan nan nan
272 266 265 263 269 278 291 281 280 280 256 236 249 272 287 295 284 285 289 276 275 277 277 274 272 271 270 270 263 260 260 265 263 262 264 261 254 255 254 254 258 259 248 237 255 242 233 225 228 223 229 233 nan 256 nan nan nan nan nan nan nan nan
276 271 266 264 nan 269 268 269 277 276 259 256 270 283 293 294 295 291 286 286 283 276 277 277 274 274 274 269 263 257 259 262 267 268 265 268 265 265 265 262 256 256 254 252 247 251 253 242 228 222 224 228 235 239 nan nan nan nan nan nan nan nan
266 273 269 nan 258 262 267 257 254 247 250 259 272 284 290 290 284 289 286 282 280 281 281 282 280 275 272 272 265 262 261 265 269 267 262 273 276 272 264 256 259 256 258 260 258 261 254 249 261 237 231 236 239 nan nan nan nan nan nan nan nan nan
268 268 259 nan 257 249 257 264 265 264 261 nan 270 274 272 275 283 285 281 276 274 275 274 273 276 274 265 265 263 263 261 262 264 269 264 252 254 269 274 272 270 269 270 257 253 253 258 260 256 259 252 245 246 nan nan nan nan nan nan nan nan nan
260 254 nan nan 240 244 258 268 nan nan nan 265 258 257 265 nan nan 275 275 272 nan nan nan nan 268 270 264 257 257 257 257 265 266 264 265 265 262 267 272 277 280 277 268 263 259 267 267 263 260 262 266 268 259 254 nan nan nan nan nan nan nan nan
239 228 226 228 232 247 256 259 265 nan nan nan nan nan nan nan nan nan nan nan nan nan nan nan nan nan nan nan nan nan nan nan nan 270 262 265 270 273 276 279 275 268 266 269 269 264 259 262 262 269 268 276 277 278 nan nan nan nan nan nan nan nan
232 225 222 226 235 242 250 252 255 263 266 nan nan nan nan nan nan nan nan nan nan nan nan nan nan nan nan nan nan nan nan nan 258 268 271 271 269 275 277 275 276 277 278 275 269 270 270 272 269 270 268 272 272 263 257 nan nan nan nan nan nan nan
238 226 225 230 239 240 242 247 257 261 259 259 nan nan nan nan nan nan nan nan nan nan nan nan nan nan nan nan nan nan nan 255 261 269 277 276 276 275 274 274 278 279 284 286 285 279 279 276 277 276 274 260 260 261 258 nan nan nan nan nan nan nan
239 227 226 234 245 247 241 244 258 270 267 nan nan nan nan nan nan nan nan nan nan nan nan nan nan nan nan nan nan nan nan nan nan 264 268 273 275 271 268 269 271 275 276 277 276 274 270 268 266 261 256 259 251 257 255 nan nan nan nan nan nan nan
236 227 230 241 249 255 nan nan 264 nan nan nan nan nan nan nan nan nan nan nan nan nan nan nan nan nan nan nan nan nan nan nan nan 264 265 266 266 263 262 259 257 260 257 259 263 264 261 265 264 263 260 262 258 255 257 274 nan nan nan nan nan nan
246 243 244 248 252 258 nan nan nan nan nan nan nan nan nan nan nan nan nan nan nan nan nan nan nan nan nan nan nan nan nan nan nan 263 263 265 264 262 261 261 257 254 251 246 nan nan nan nan nan nan nan nan nan nan nan nan nan nan nan nan nan nan
256 255 250 244 248 247 252 nan nan nan nan nan nan nan nan nan nan nan nan nan nan nan nan nan nan nan nan nan nan nan nan nan nan 259 257 258 261 261 261 263 264 259 nan nan nan nan nan nan nan nan nan nan nan nan nan nan nan nan nan nan nan nan